Погода в Ново-Щедринской

Россия / Чеченская Республика     43°29′11″N   46°06′31″E
темп.,
°C
ветер,
м/с
пор.,
м/с
влажн.,
%
обл.,
%
осадки,
мм/ч
давл.,
гПа
погр.,
м
27 июня, пн
пн2700:00+20з3788100 1.4 1009253
03:00+19з49883 1.5 1008273
06:00+20з510810 0.0 1009380
09:00+27зсз67520 0.0 10081006
12:00+31сз43380 0.0 10081649
15:00+34ссз133210 0.0 10072244
18:00+31св123937 0.2 1007347
21:00+25ссв12601 0.3 100882
28 июня, вт
вт2800:00+21зсз3477100 0.6 100999
03:00+20з2488100 1.9 100984
06:00+22з348069 0.1 1010161
09:00+28с22460 0.1 10091215
12:00+32с45333 0.0 10092199
15:00+32с77264 0.4 10082293
18:00+29всв453341 0.3 1010972
21:00+23вюв224042 0.3 101225
29 июня, ср
ср2900:00+22юз22493 0.0 101132
03:00+20зюз22683 0.0 101127
06:00+22з125976 0.0 1012173
09:00+28сз223659 0.1 10121231
12:00+32с3226100 0.1 10112144
15:00+33ссв3422100 0.1 10102755
18:00+28в8846100 0.0 10121104
21:00+22в5970100 0.0 1013437
30 июня, чт
чт3000:00+20в4984100 0.0 1014313
03:00+18в38925 0.0 1013228
06:00+20в49752 0.0 1014420
09:00+28в67260 0.0 10131250
12:00+31всв66220 0.0 10112120
15:00+31в76221 0.0 10102417
18:00+27вюв77284 0.0 10121261
21:00+21вюв5104314 0.0 1013339
1 июля, пт
пт100:00+20в365198 0.0 1013166
03:00+20всв364765 0.0 1012179
06:00+20в3545100 0.0 1013253
09:00+24всв4532100 0.0 1013790
12:00+28св542495 0.0 10131775
15:00+28ссв532486 0.0 10131520
18:00+26св3428100 0.0 1013225
21:00+23вюв2236100 0.0 101574